XM-5

Last updated on Sun Jul 06 2025 00:02:43 GMT+0000 (Coordinated Universal Time)

1 37185U 10053A 25186.54628108 -.00000007 00000+0 00000+0 0 9995 2 37185 0.0458 273.6995 0000589 107.7524 343.7948 1.00271047 54001
UTC large
Height (km)
Speed (km/s)
/
Latitude / Longitude
Inclination (degrees)
Orbital Period (minutes)
Azimuth
Elevation
Range (km)
Doppler Factor

Next 0 passes for location: London (51.5072 / 0.1276)

Sorry there are no passes over London.